New Milford, CT

8:29 AM EST on February 08, 2016 (GMT -0500)
Gaylordsville | | Change Station
CLOSE
Current Station
Personal Weather Station
Location: New Milford, CT
Elevation: 400 ft
Nearby Weather Stations
Active Advisory: Winter Weather Advisory

Elev 400 ft 41.62 °N, 73.47 °W | Updated 2 minutes ago

Overcast
Overcast
31.9 °F
Feels Like 27 °F
N
5.0
Wind Variable Wind from NNE
Gusts 8.0 mph

Today
High -- | Low -- °F
--% Chance of Precip.
Yesterday
High -- | Low -- °F
Precip. -- in
Pressure 29.82 in
Visibility 10.0 miles
Clouds Overcast 2700 ft
Windchill 27 °F
Dew Point 24 °F
Humidity 71%
Rainfall 0.00 in
Snow Depth Not available.
6:58 AM 5:17 PM
Waning Crescent, 0% visible
METAR KDXR 081253Z 02013G18KT 10SM OVC027 01/M06 A2981 RMK AO2 SLP098 T00061056
Pressure 29.82 in
Visibility 10.0 miles
Clouds Overcast 2700 ft
Windchill 27 °F
Dew Point 24 °F
Humidity 71%
Rainfall 0.00 in
Snow Depth Not available.
6:58 AM 5:17 PM
Waning Crescent, 0% visible
METAR KDXR 081253Z 02013G18KT 10SM OVC027 01/M06 A2981 RMK AO2 SLP098 T00061056

10-Day Weather Forecast

Almanac

Astronomy

Feb. 08, 2016 Rise Set
Actual Time
Civil Twilight
Nautical Twilight
Astronomical Twilight
Moon
Length of Visible Light
Length of Day
Tomorrow will be .
, % of the Moon is Illuminated

Today's Extremes

State Highs State Lows

Community

WunderPhotos

Upload Photos

1,891,434 photos uploaded!

WunderBlog® & News

Nearby

Air Quality

  Air Quality AQ Index Pollutant
Not available.

Snow Depth

Station Depth Elevation

Earthquake Activity

City Distance Mag. Time & Date
Minimum magnitude displayed is 2.5.

Coastal Water Temperatures

Place Temperature

Stations

Nearby Weather Stations

Station Location Temp. Windchill Dew Point Humidity Wind Precip. Elev Updated Type
                   

Watches & Warnings

Winter Weather Advisory
Issued: 3:50 AM EST Feb. 8, 2016 – National Weather Service

... Winter Weather Advisory in effect from 9 am this morning to
5 am EST Tuesday...

The National Weather Service in Albany has issued a Winter
Weather Advisory for snow... which is in effect from 9 am this
morning to 5 am EST Tuesday.

* Locations... Litchfield County Connecticut.

* Hazard types... snow.

* Accumulations... 3 to 5 inches. The highest amounts will be in
southeastern parts of the County.

* Timing... snow will spread from southeast to northwest across
Litchfield County during the mid to late morning hours. On and
off light snow will occur during the afternoon and evening
hours... and taper off tonight.

* Impacts... snow covered roadways and poor visibility will make
for hazardous travel at times.

* Winds... northeast 10 to 15 mph with gusts up to 20 mph.

* Temperatures... in the mid to upper 20s.

Precautionary/preparedness actions...

A Winter Weather Advisory for snow means that periods of snow
will cause primarily travel difficulties. Be prepared for snow
covered roads and limited visibilities... and use caution while
driving.